Regional Weather Roundup
Issued by NWS State College, PA

Home | Current Version | Previous Version | Graphics & Text | Print | Product List | Glossary On
Versions: 1 2 3 4 5 6 7 8 9 10 11 12 13 14 15 16 17 18 19 20 21 22 23 24 25 26 27 28 29 30 31 32 33 34 35 36 37 38 39 40 41 42 43 44 45 46 47 48 49 50
039
ASUS41 KCTP 031003
RWRCTP

REGIONAL WEATHER ROUNDUP
NATIONAL WEATHER SERVICE STATE COLLEGE PA
500 AM EST SAT DEC 03 2016

Note: "fair" indicates few or no clouds below 12,000 feet with no
significant weather and/or obstructions to visibility.

* = STATION THAT DOES NOT REPORT PRECIPITATION /E.G. RAIN...SNOW...ETC/
    THUNDER OR FOG.

PAZ002>004-007>009-013>016-020>023-029>032-031100-
WESTERN PENNSYLVANIA

CITY           SKY/WX    TMP DP  RH WIND       PRES   REMARKS
ERIE           CLOUDY    41  34  76 W13       30.18R
MEADVILLE      CLOUDY    36  31  82 W8        30.17R
FRANKLIN*        N/A     34  28  80 W12       30.17R
NEW CASTLE     CLOUDY    36  29  75 W7        30.23R
BEAVER COUNTY  NOT AVBL
BUTLER*        CLOUDY    36  27  69 W10G16    30.23R
PITTSBURGH INT CLOUDY    37  30  75 W6        30.23R
PITTSBURGH     CLOUDY    35  27  72 W8        30.22
INDIANA*       CLOUDY    36  30  80 W16       30.19R
LATROBE        CLOUDY    36  28  75 SW8       30.22R
WASHINGTON CO* CLOUDY    34  27  75 W5        30.25R
$$

PAZ004>006-010>012-017>019-024>028-033>037-041-042-045-046-049>053-031100-
CENTRAL PENNSYLVANIA

CITY           SKY/WX    TMP DP  RH WIND       PRES   REMARKS
BRADFORD       MIX PCPN  34  32  92 NW15G25   30.06R
DUBOIS         CLOUDY    34  29  82 W16G24    30.10R
CLEARFIELD     CLOUDY    36  31  82 W8G17     30.11R
JOHNSTOWN      CLOUDY    32  28  85 W18G25    30.11R
ALTOONA        CLOUDY    37  29  72 NW9G18    30.13R
STATE COLLEGE  CLOUDY    37  31  76 W15G21    30.08R
WILLIAMSPORT   NOT AVBL
SELINSGROVE    CLOUDY    42  33  70 W10       30.07
FT INDIANTOWN  CLOUDY    43  30  61 W13G23    30.04R
CAPITAL CITY   PTCLDY    44  28  53 W17       30.07R
HARRISBURG     MOCLDY    43  32  65 W14G22    30.06R
YORK           MOCLDY    40  30  67 W10       30.08
$$

PAZ038>040-043-044-047-048-054-055-060>062-067>071-031100-
EASTERN PENNSYLVANIA

CITY           SKY/WX    TMP DP  RH WIND       PRES   REMARKS
SCRANTON       NOT AVBL
MOUNT POCONO   CLOUDY    32  25  75 NW13G29   29.92R
ALLENTOWN      CLOUDY    41  30  65 NW13G20   30.02R
QUAKERTOWN*    CLOUDY    41  32  70 NW13G18   30.02R
READING        NOT AVBL
LANCASTER      CLOUDY    43  32  65 W14       30.04
COATESVILLE    PTSUNNY   41  30  65 NW14G20   30.03R
POTTSTOWN      NOT AVBL
BLUE BELL      CLOUDY    41  32  70 NW7       30.01R
DOYLESTOWN     NOT AVBL
WILLOW GROVE   NOT AVBL
NORTH PHILA    NOT AVBL
PHILADELPHIA   NOT AVBL
$$




USA.gov is the U.S. government's official web portal to all federal, state and local government web resources and services.